Flag for Germany Weather past 2 weeks in Neubrandenburg, Mecklenburg-Western Pomerania, Germany

Now
55 °F

Passing clouds.


Feels Like: 54 °F
Forecast: 52 / 63 °F
Wind: 7 mph from South

Location: Laage

Current Time: Sep 5, 2015 at 1:09:22 AM

Latest Report: Sep 5, 2015 at 12:20 AM


Visibility: N/A

Pressure: 29.77 "Hg

Humidity: 72%

Dew point: 46 °F

Location of NeubrandenburgLocation

Historic Weather in Neubrandenburg — Graph

°F

Neubrandenburg temperature yesterday

Maximum temperature yesterday: 64 °F (at 3:20 PM)
Minimum temperature yesterday: 46 °F (at 3:20 AM)
Average temperature yesterday: 55 °F

Past Weeks' High & Low Weather Summary

 TemperatureHumidityPressure
High82 °F (Aug 31, 6:20 PM)100% (Aug 25, 1:20 AM)30.30 "Hg (Aug 25, 1:20 AM)
Low46 °F (Sep 4, 3:20 AM)23% (Aug 21, 3:20 PM)29.68 "Hg (Aug 24, 7:20 PM)
Average63 °F75%29.96 "Hg
* Reported Aug 20 11:20 PM — Sep 4 11:20 PM, Neubrandenburg, Weather by CustomWeather, © 2015

Note: Actual official high and low records may vary slightly from our data, if they occured in-between our weather recording intervals... More about our weather records

Advertising

Neubrandenburg weather history for previous 24 hours

 ConditionsComfort  
Time TempWeatherWind HumidityBarometerVisibility
11:20 PM
Fri, Sep 4
57 °FPassing clouds.6 mph72%29.77 "HgN/A
10:20 PM59 °FPassing clouds.6 mph63%29.80 "HgN/A
9:20 PM59 °FPassing clouds.5 mph68%29.80 "HgN/A
8:20 PM59 °FPartly sunny.3 mph68%29.80 "HgN/A
7:20 PM61 °FPartly sunny.7 mph59%29.80 "HgN/A
6:20 PM63 °FPartly sunny.7 mph56%29.83 "HgN/A
5:20 PM63 °FPartly sunny.7 mph56%29.83 "HgN/A
4:20 PM63 °FPartly sunny.9 mph56%29.86 "HgN/A
3:20 PM64 °FScattered clouds.13 mph52%29.86 "HgN/A
2:20 PM61 °FPartly sunny.8 mph63%29.86 "HgN/A
1:20 PM63 °FScattered clouds.9 mph59%29.89 "HgN/A
12:20 PM61 °FScattered clouds.8 mph68%29.89 "HgN/A
11:20 AM57 °FPartly sunny.8 mph77%29.89 "HgN/A
10:20 AM57 °FPartly sunny.6 mph82%29.92 "HgN/A
9:20 AM54 °FBroken clouds.5 mph94%29.89 "HgN/A
8:20 AM52 °FBroken clouds.5 mph94%29.89 "Hg4 mi
7:20 AM48 °FFog.5 mph100%29.89 "Hg3 mi
7:04 AM48 °FFog.6 mph100%29.89 "Hg2 mi
6:20 AM46 °FFog.1 mph100%29.89 "Hg1 mi
5:20 AM46 °FFog.1 mph93%29.89 "Hg1 mi
4:20 AM46 °FFog.No wind100%29.89 "Hg0 mi
3:20 AM46 °FFog.1 mph100%29.89 "Hg1 mi
2:20 AM48 °FFog.1 mph94%29.92 "Hg1 mi
1:20 AM48 °FFog.2 mph100%29.92 "Hg1 mi
Weather by CustomWeather, © 2015

See weather overviewHow to use our weather pages